Torna al catalogo

COSMOS 1275 DEB

LostPO
NORAD 42169·DEBRIS·🇷🇺 Russia

Lanciato Jun 4, 1981 da Plesetsk Cosmodrome

Loading…

Prossimi Passaggi (prossime 24 ore)

TLE

ObsoletoSource: Space-Track

Epoca: May 6, 2024, 01:14 UTC

1 42169U 81053SH  24127.05190769  .00013584  00000-0  34811-2 0  9992
2 42169  82.8698  44.8868 0018976 172.9726 187.1742 14.50146059547223

Traccia COSMOS 1275 DEB in tempo reale con AllMySat

Download on the App Store